This demonstration page uses our WeatherBlox Daily Observations layout. Learn more.

Left ArrowRight Arrow

36.17497, -115.13722

Hourly Observations for March 30, 2016

Temp ( °F °C ) Dew Point ( °F °C ) Humidity (%) Winds ( mph kmh ) Pressure ( in mb ) Visibility ( mi km ) Precip ( " mm )
12:53 am 00:53 Mostly Cloudy 51 10.6 21 -6.1 31 31 N 10 17 29.85 1011 10 16.0934 0 0
1:53 am 01:53 Clear 49 9.4 22 -5.6 35 35 N 8 13 29.85 1011 10 16.0934 0 0
2:53 am 02:53 Clear 50 10 22 -5.6 33 33 SW 3 6 29.85 1011 10 16.0934 0 0
3:53 am 03:53 Mostly Cloudy 50 10 23 -5 35 35 Calm 29.85 1011 10 16.0934 0 0
4:53 am 04:53 Cloudy 49 9.4 23 -5 36 36 NNW 5 7 29.87 1012 10 16.0934 0 0
5:53 am 05:53 Clear 49 9.4 20 -6.7 32 32 NW 8 13 29.88 1012 10 16.0934 0 0
6:53 am 06:53 Cloudy 50 10 20 -6.7 30 30 N 6 9 29.91 1013 10 16.0934 0 0
7:53 am 07:53 Cloudy 50 10 21 -6.1 32 32 ENE 7 11 29.93 1014 10 16.0934 0 0
8:53 am 08:53 Mostly Cloudy 52 11.1 22 -5.6 31 31 N 9 15 29.94 1014 10 16.0934 0 0
9:53 am 09:53 Sunny 55 12.8 22 -5.6 28 28 N 8 13 29.96 1014 10 16.0934 0 0
10:53 am 10:53 Sunny 56 13.3 22 -5.6 27 27 SW 3 6 29.96 1015 10 16.0934 0 0
11:53 am 11:53 Sunny 58 14.4 21 -6.1 24 24 ESE 8 13 29.95 1014 10 16.0934 0 0
12:53 pm 12:53 Cloudy 58 14.4 21 -6.1 24 24 VRB 5 7 29.94 1014 10 16.0934 0 0
1:53 pm 13:53 Mostly Cloudy 58 14.4 20 -6.7 23 23 S 3 6 29.94 1014 10 16.0934 0 0
2:53 pm 14:53 Cloudy 59 15 21 -6.1 23 23 VRB 3 6 29.93 1014 10 16.0934 0 0
3:53 pm 15:53 Mostly Cloudy 60 15.6 21 -6.1 22 22 Calm 29.93 1013 10 16.0934 0 0
4:53 pm 16:53 Partly Cloudy 61 16.1 23 -5 23 23 ENE 10 17 29.93 1014 10 16.0934 0 0
5:53 pm 17:53 Partly Cloudy 59 15 21 -6.1 23 23 NE 9 15 29.94 1014 10 16.0934 0 0
6:53 pm 18:53 Sunny 58 14.4 23 -5 26 26 NNW 10 17 29.96 1015 10 16.0934 0 0
7:53 pm 19:53 Clear 57 13.9 25 -3.9 29 29 N 7 11 29.97 1015 10 16.0934 0 0
8:53 pm 20:53 Clear 55 12.8 27 -2.8 34 34 NNW 8 13 29.99 1016 10 16.0934 0 0
9:53 pm 21:53 Clear 54 12.2 26 -3.3 34 34 NNW 7 11 29.99 1016 10 16.0934 0 0
10:53 pm 22:53 Clear 52 11.1 24 -4.4 34 34 N 9 15 30 1016 10 16.0934 0 0
11:53 pm 23:53 Clear 52 11.1 23 -5 32 32 NNW 8 13 30.01 1016 10 16.0934 0 0

Powered by AerisWeather